Showing default

ICEYE-X7, 46496

Orbit data source: Space-Track

ICEYE-X7, 46496 is a payload satellite owned by ICEYE (FI) in SSO that was launched on Mon, 28 Sep 2020 UTC via a SOYUZ-2-1B launch vehicle from the Plesetsk Missile And Space Complex (PKMTR). Payloads include a variety of satellites, spacecraft, and rockets equipped with specific instruments for various scientific and technological missions. These include communications satellites like Starlink; space stations such as the ISS; scientific satellites like the Hubble; Earth observation satellites from companies like Planet Labs, Umbra, and HawkEye 360; GPS; miniature CubeSats for education and research; and military/defense satellites.

Loading next visibility...
ICEYE-X7 details
Identifier
46496, 2020-068L
Orbit
SSO
Last TLE update6 hours ago
Origin
Flag of FIICEYE (FI / FIN)
ManufacturerICEYE
MissionOperational Commercial Radar Imaging
Bus & MotorICEYE, Unknown motor
Mass80 kg wet, 80 kg dry
Launch date (UTC)
2020-09-28 (4 years ago)
Launch vehicle
SOYUZ-2-1B
Launch site
Plesetsk Missile And Space Complex (PKMTR)
Object type
Payload
Rocket body
Debris
Shape & HBRBox + 1 Pan, 3.25 m
Radar Cross Section1.837 m², Medium (>0.1 m² and < 1m²)

Expand to show TLE details & history

TLE from 6 hours ago
0 ICEYE-X7
1 46496U 20068L   24361.28794701  .00017070  00000-0  89308-3 0  9995
2 46496  97.6907 300.9964 0012746  49.6747 310.5597 15.15846231232864
Epoch: 2024-12-26T06:54Z
Definitive object data (Epoch: 2024-12-26T06:54:38.621Z)
Latitude0.00002°
Longitude102.06598°
Altitude515.776 km
Speed7.609 km/s
True Right ascension20h 03m 59s
True Declination0° 00' 00"
Sunlit
Object was in daylight at TLE epoch
Visualization TLE readout
Latitude-65.26716°
Longitude119.27183°
Altitude546.954 km
Speed7.585 km/s
Apparent Right ascension23h 10m 57s
Apparent Declination-55° 05' 58"
Sunlit
Object is in daylight
Visualization observer readout
Local Sidereal Time12:18:57
Azimuth148.962° SSE
Elevation-71.071°
Doppler factor1
Orbital elements
Apogee altitude524.181 km
Perigee altitude506.608 km
Semi-major axis6,893.531 km
Eccentricity0.0012746
Inclination97.6907°
RAAN300.9964°
Arg. of periapsis49.6747°
True anomaly310.44862°
Mean anomaly310.5597°
Eccentric anomaly310.50417°
Mean motion3.79211 °/min
BSTAR0.00089308
Orbital period94.93 mins
Loading maneuver chart data...
Loading historical data...
Loading historical data...
Loading historical data...
Loading historical data...
Loading historical data...
Loading historical data...
Loading historical data...

ICEYE-X7 Visibility forecast

Observer location: undefined°, undefined

Span
Click to sort rows by Start time (UTC) header in descending order
Start Az.
Max El. time (UTC)
Max El. Az.
Max El.
End time (UTC)
End Az.
6 mins2024-12-26 19:43:21.304Z132.944° SE2024-12-26 19:46:21.304Z63.005° ENE28.884°2024-12-26 19:49:21.304Z7.488° NNE
5 mins2024-12-27 08:50:21.304Z31.352° NE2024-12-27 08:52:21.304Z92.132° ESE38.442°2024-12-27 08:55:21.304Z174.559° S
|